Flag for U.S.A. Weather past 2 weeks in Sheboygan, Wisconsin, U.S.A.

Now
84 °F

Sunny.


Feels Like: 82 °F
Forecast: 68 / 81 °F
Wind: 18 mph from West

Location: Sheboygan County Memorial Airport

Current Time: Jul 29, 2015 at 5:31:54 PM

Latest Report: Jul 29, 2015 at 4:53 PM


Visibility: 10 mi

Pressure: 29.86 "Hg

Humidity: 32%

Dew point: 51 °F

Location of SheboyganLocation

Historic Weather in Sheboygan — Graph

°F

Sheboygan temperature yesterday

Maximum temperature yesterday: 85 °F (at 11:53 AM)
Minimum temperature yesterday: 58 °F (at 2:53 AM)
Average temperature yesterday: 72 °F

Past Weeks' High & Low Weather Summary

 TemperatureHumidityPressure
High87 °F (Jul 17, 3:53 PM)100% (Jul 16, 6:00 AM)30.06 "Hg (Jul 16, 6:00 AM)
Low51 °F (Jul 16, 3:52 AM)32% (Jul 29, 3:53 PM)29.69 "Hg (Jul 20, 3:53 PM)
Average71 °F74%29.90 "Hg
* Reported Jul 14 3:53 PM — Jul 29 3:53 PM, Sheboygan, Weather by CustomWeather, © 2015

Note: Actual official high and low records may vary slightly from our data, if they occured in-between our weather recording intervals... More about our weather records

Advertising

Sheboygan weather history for previous 24 hours

 ConditionsComfort  
Time TempWeatherWind HumidityBarometerVisibility
3:53 PM
Wed, Jul 29
85 °FSunny.18 mph32%29.87 "Hg10 mi
2:53 PM84 °FSunny.20 mph33%29.89 "Hg10 mi
1:53 PM84 °FSunny.18 mph35%29.89 "Hg10 mi
12:53 PM83 °FSunny.16 mph36%29.90 "Hg10 mi
11:53 AM82 °FSunny.16 mph35%29.90 "Hg10 mi
10:53 AM79 °FSunny.15 mph44%29.91 "Hg10 mi
9:53 AM78 °FSunny.8 mph54%29.91 "Hg10 mi
8:53 AM76 °FScattered clouds.7 mph67%29.91 "Hg10 mi
7:53 AM77 °FOvercast.8 mph64%29.90 "Hg10 mi
6:53 AM76 °FPartly sunny.10 mph82%29.88 "Hg10 mi
5:53 AM75 °FOvercast.10 mph88%29.89 "Hg10 mi
4:53 AM73 °FFog.7 mph94%29.87 "Hg5 mi
3:53 AM72 °FFog.7 mph93%29.88 "Hg5 mi
2:53 AM69 °FFog.N/A93%29.87 "Hg5 mi
1:53 AM70 °FFog.No wind90%29.87 "Hg6 mi
12:53 AM68 °FFog.3 mph93%29.90 "Hg6 mi
11:53 PM
Tue, Jul 28
70 °FClear.No wind90%29.93 "Hg7 mi
10:53 PM70 °FClear.3 mph87%29.91 "Hg8 mi
9:53 PM71 °FClear.5 mph87%29.91 "Hg9 mi
8:53 PM73 °FSunny.3 mph79%29.91 "Hg9 mi
7:53 PM76 °FSunny.6 mph72%29.90 "Hg10 mi
6:53 PM79 °FMostly cloudy.6 mph67%29.92 "Hg10 mi
5:53 PM78 °FSunny.8 mph66%29.92 "Hg10 mi
Weather by CustomWeather, © 2015

See weather overviewHow to use our weather pages